カタログに戻る

FENGYUN 1C DEB

運用中SSO
NORAD 37477·DEBRIS·🇨🇳 China

打ち上げ May 10, 1999 から Taiyuan Satellite Launch Center

Loading…

次のパス (今後24時間)

TLE

最新Source: Space-Track

元期: Sep 14, 2026, 05:27 UTC

1 37477U 99025EJX 26257.22740896  .00001090  00000-0  52481-3 0  9996
2 37477  98.6089 259.4218 0038367  31.8179 328.5305 14.20407419858242

AllMySatでFENGYUN 1C DEBをリアルタイム追跡

Download on the App Store